This is the latest recevied weather packets stored in our database for station/object AA4XD. If no packets are shown the sender has not sent any weather packets the latest 10 day(s).
| Time | Temp. | Humidity | Pressure | Rain* | Wind** | Luminosity | Snow |
|---|---|---|---|---|---|---|---|
| 1777561911 | 27.78° C | 67% | 1010.6 hPa | 0 mm | - | 315 W/m² | - |
| 1777561608 | 27.78° C | 67% | 1010.8 hPa | 0 mm | - | 235 W/m² | - |
| 1777561304 | 28.33° C | 66% | 1010.9 hPa | 0 mm | - | 237 W/m² | - |
| 1777561004 | 28.33° C | 67% | 1010.8 hPa | 0 mm | - | 247 W/m² | - |
| 1777560699 | 28.33° C | 66% | 1010.9 hPa | 0 mm | - | 343 W/m² | - |
| 1777560397 | 27.78° C | 67% | 1010.9 hPa | 0 mm | - | 297 W/m² | - |
| 1777560095 | 27.78° C | 67% | 1011 hPa | 0 mm | - | 257 W/m² | - |
| 1777559791 | 28.33° C | 67% | 1010.7 hPa | 0 mm | - | 244 W/m² | - |
| 1777559488 | 28.33° C | 67% | 1011 hPa | 0 mm | - | 276 W/m² | - |
| 1777559185 | 28.89° C | 67% | 1010.9 hPa | 0 mm | - | 309 W/m² | - |
| 1777558885 | 28.89° C | 67% | 1010.8 hPa | 0 mm | - | 383 W/m² | - |
| 1777558581 | 28.89° C | 69% | 1010.7 hPa | 0 mm | - | 758 W/m² | - |
| 1777558276 | 27.78° C | 70% | 1010.5 hPa | 0 mm | - | 158 W/m² | - |
| 1777557974 | 27.22° C | 72% | 1010.6 hPa | 0 mm | - | 695 W/m² | - |
| 1777557670 | 27.22° C | 73% | 1010.7 hPa | 0 mm | - | 382 W/m² | - |
| 1777557366 | 26.67° C | 74% | 1010.7 hPa | 0 mm | - | 654 W/m² | - |
| 1777557063 | 26.11° C | 76% | 1010.8 hPa | 0 mm | - | 621 W/m² | - |
| 1777556758 | 26.11° C | 76% | 1010.6 hPa | 0 mm | - | 195 W/m² | - |
| 1777556455 | 26.11° C | 77% | 1010.7 hPa | 0 mm | - | 183 W/m² | - |
| 1777556155 | 26.67° C | 75% | 1010.7 hPa | 0 mm | - | 213 W/m² | - |
| 1777555851 | 26.67° C | 76% | 1010.6 hPa | 0 mm | - | 290 W/m² | - |
| 1777555546 | 25.56° C | 78% | 1010.7 hPa | 0 mm | - | 323 W/m² | - |
| 1777555243 | 26.11° C | 78% | 1010.9 hPa | 0 mm | - | 249 W/m² | - |
| 1777554940 | 26.11° C | 78% | 1010.8 hPa | 0 mm | - | 204 W/m² | - |
| 1777554637 | 25.56° C | 79% | 1010.9 hPa | 0 mm | - | 404 W/m² | - |
* Rain latest hour (hover to see other rain measurements)
** Current wind speed in m/s (hover to see current wind gust speed)